Regional Weather Roundup
Issued by NWS Sioux Falls, SD

Home | Current Version | Previous Version | Text Only | Print | Product List | Glossary Off
Versions: 1 2 3 4 5 6 7 8 9 10 11 12 13 14 15 16 17 18 19 20 21 22 23 24 25 26 27 28 29 30 31 32 33 34 35 36 37 38 39 40 41 42 43 44 45 46 47 48 49 50

000
ASUS43 KFSD 092302
RWRFSD

WEATHER ROUNDUP FOR SE SOUTH DAKOTA/SW MINNESOTA/NW IOWA
NATIONAL WEATHER SERVICE SIOUX FALLS SD
500 PM CST TUE FEB 09 2016

NOTE: "FAIR" INDICATES FEW OR NO CLOUDS BELOW 12,000 FEET WITH NO
SIGNIFICANT WEATHER AND OR OBSTRUCTIONS TO VISIBILITY.


SDZ038>040-050-052>070-100000-
SOUTHEAST SOUTH DAKOTA

CITY           SKY/WX    TMP DP  RH WIND       PRES   REMARKS
BROOKINGS      CLOUDY    20  11  68 NW14      30.18S WCI   7
CHAMBERLAIN    CLOUDY    33  16  50 SW3       30.19S
HURON          CLOUDY    29  14  53 W3        30.20F
MADISON        CLOUDY    23  14  68 NW10      30.19S WCI  12
MITCHELL       CLOUDY    30  14  51 N3        30.23F
SIOUX FALLS    CLOUDY    23  12  62 NW12      30.22R WCI  12
WINNER         FAIR      35  16  45 S7        30.17S WCI  29
YANKTON        PTCLDY    27  12  54 NW10      30.24S WCI  17
$$

MNZ071-072-080-081-089-090-097-098-100000-
SOUTHWEST MINNESOTA

CITY           SKY/WX    TMP DP  RH WIND       PRES   REMARKS
FAIRMONT       PTCLDY    16   7  67 NW18      30.13S WCI  -1
JACKSON        PTCLDY    18   7  62 NW22G29   30.14S WCI   0
LUVERNE        CLOUDY    23  14  68 NW12      30.21R WCI  12
MARSHALL       CLOUDY    18  10  71 N17       30.20S WCI   3
MONTEVIDEO     CLOUDY    18  10  73 N16       30.22S WCI   3
PIPESTONE      CLOUDY    21   7  53 N10       30.18R WCI  10
REDWOOD FALLS  MOCLDY    17   7  64 NW13G24   30.19R WCI   4
TRACY          CLOUDY    19  12  76 NW14G20   30.19R WCI   5
WINDOM         CLEAR     14   9  79 NW16      30.15S WCI  -2
WORTHINGTON    CLOUDY    18   7  62 NW20      30.17S WCI   1
$$

IAZ001>003-012>014-020>022-031-032-NEZ013-014-SDZ071-100000-
NORTHWEST IOWA

CITY           SKY/WX    TMP DP  RH WIND       PRES   REMARKS
ESTHERVILLE    CLEAR     15   7  70 NW21G28   30.15R WCI  -2
SIOUX CITY     CLEAR     25  13  60 NW14      30.25R WCI  13
SPENCER        CLOUDY    18   9  68 NW15G23   30.17S WCI   4
STORM LAKE     CLOUDY    18  10  73 NW22G30   30.17F WCI   0
$$

ABBREVIATIONS USED IN REMARKS
   TC - TEMPERATURE IN CELSIUS
  WCI - WIND CHILL INDEX
   HX - HEAT INDEX
  VSB - VISIBILITY




USA.gov is the U.S. government's official web portal to all federal, state and local government web resources and services.